Location: Lecco
(45.8566°N, 9.3977°E)
Time: 00:16:53
(UTC+02:00)

SR - Visible Passes

Search period start: 21 July 2019 00:00
Search period end: 31 July 2019 00:00
Orbit: 580 x 876 km, 66.7° (Epoch: 20 July)

Date Brightness Start Highest point End Pass type
(mag) Time Alt. Az. Time Alt. Az. Time Alt. Az.
21 Jul ? 05:07:12 10° NNW 05:11:17 24° NE 05:15:37 10° E visible
21 Jul ? 23:04:27 10° W 23:08:08 26° NW 23:12:01 10° NNE visible
22 Jul ? 04:18:09 10° N 04:21:09 16° NE 04:24:17 10° ENE visible
22 Jul ? 22:14:05 10° SW 22:18:14 47° NW 22:22:40 10° NNE visible
23 Jul ? 00:00:13 10° NW 00:01:33 11° NNW 00:02:54 10° N visible
23 Jul ? 03:29:54 10° NNE 03:30:51 10° NNE 03:31:49 10° NE visible
23 Jul ? 05:09:36 10° NNW 05:14:21 37° NE 05:19:26 10° ESE visible
23 Jul ? 23:08:23 10° WNW 23:11:17 17° NW 23:14:21 10° N visible
24 Jul ? 04:20:20 10° NNW 04:24:23 23° NE 04:28:40 10° E visible
24 Jul ? 22:17:28 10° WSW 22:21:13 28° NW 22:25:12 10° NNE visible
25 Jul ? 03:31:18 10° N 03:34:14 15° NNE 03:37:17 10° ENE visible
25 Jul ? 05:12:09 10° NNW 05:17:17 61° NE 05:22:49 10° SE visible
25 Jul ? 23:13:00 10° NW 23:14:36 12° NNW 23:16:15 10° N visible
26 Jul ? 02:43:14 10° NNE 02:43:55 10° NNE 02:44:37 10° NNE visible
26 Jul ? 04:22:44 10° NNW 04:27:28 35° NE 04:32:32 10° ESE visible
26 Jul ? 22:21:19 10° W 22:24:22 18° NW 22:27:33 10° N visible
27 Jul ? 03:33:29 10° N 03:37:29 22° NE 03:41:42 10° E visible
27 Jul ? 05:14:51 10° NW 05:20:06 80° WSW 05:25:44 10° SSE visible
27 Jul ? 21:30:29 10° WSW 21:34:19 29° NW 21:38:23 10° NNE visible
28 Jul ? 02:44:28 10° N 02:47:19 15° NNE 02:50:17 10° ENE visible
28 Jul ? 04:25:16 10° NNW 04:30:25 58° NE 04:35:57 10° SE visible
28 Jul ? 22:25:50 10° NW 22:27:40 12° NNW 22:29:34 10° N visible
29 Jul ? 01:56:46 10° NNE 01:56:59 10° NNE 01:57:13 10° NNE visible
29 Jul ? 03:35:52 10° NNW 03:40:35 34° NE 03:45:37 10° ESE visible
29 Jul ? 05:17:45 10° NW 05:22:47 46° WSW 05:28:11 10° S visible
29 Jul ? 21:34:17 10° W 21:37:26 19° NW 21:40:46 10° N visible
30 Jul ? 02:46:37 10° N 02:50:35 22° NE 02:54:45 10° E visible
30 Jul ? 04:27:58 10° NW 04:33:14 84° WSW 04:38:55 10° SSE visible
